owner,sensor,date,latitude,longitude,vertical_datum,sea_water_practical_salinity,qcFlag 
ENP,ioos.station.NOAA.NDBC:LMDF1:1,2016-03-01T00:00:00Z,25.1760,-80.6330,1.5,18.55,1111122 
ENP,ioos.station.NOAA.NDBC:LMDF1:1,2016-03-01T01:00:00Z,25.1760,-80.6330,1.5,18.44,1111122 
ENP,ioos.station.NOAA.NDBC:LMDF1:1,2016-03-01T02:00:00Z,25.1760,-80.6330,1.5,19.71,1111122 
ENP,ioos.station.NOAA.NDBC:LMDF1:1,2016-03-01T05:00:00Z,25.1760,-80.6330,1.5,19.86,1111122 
ENP,ioos.station.NOAA.NDBC:LMDF1:1,2016-03-01T10:00:00Z,25.1760,-80.6330,1.5,19.89,1111122 
ENP,ioos.station.NOAA.NDBC:LMDF1:1,2016-03-01T11:00:00Z,25.1760,-80.6330,1.5,19.95,1111122 
ENP,ioos.station.NOAA.NDBC:LMDF1:1,2016-03-01T12:00:00Z,25.1760,-80.6330,1.5,20.1,1111122 
ENP,ioos.station.NOAA.NDBC:LMDF1:1,2016-03-01T13:00:00Z,25.1760,-80.6330,1.5,20.02,1111122 
ENP,ioos.station.NOAA.NDBC:LMDF1:1,2016-03-01T14:00:00Z,25.1760,-80.6330,1.5,20.21,1111122 
ENP,ioos.station.NOAA.NDBC:LMDF1:1,2016-03-01T16:00:00Z,25.1760,-80.6330,1.5,19.72,1111122 
ENP,ioos.station.NOAA.NDBC:LMDF1:1,2016-03-01T17:00:00Z,25.1760,-80.6330,1.5,20.15,1111122 
ENP,ioos.station.NOAA.NDBC:LMDF1:1,2016-03-01T18:00:00Z,25.1760,-80.6330,1.5,19.35,1111122 
ENP,ioos.station.NOAA.NDBC:LMDF1:1,2016-03-01T20:00:00Z,25.1760,-80.6330,1.5,20.02,1111122 
ENP,ioos.station.NOAA.NDBC:LMDF1:1,2016-03-01T21:00:00Z,25.1760,-80.6330,1.5,19.67,1111122 
ENP,ioos.station.NOAA.NDBC:LMDF1:1,2016-03-01T22:00:00Z,25.1760,-80.6330,1.5,19.99,1111122 
ENP,ioos.station.NOAA.NDBC:LMDF1:1,2016-03-01T23:00:00Z,25.1760,-80.6330,1.5,19.73,1111122 
ENP,ioos.station.NOAA.NDBC:LMDF1:1,2016-03-02T00:00:00Z,25.1760,-80.6330,1.5,19.74,1111122 
ENP,ioos.station.NOAA.NDBC:LMDF1:1,2016-03-02T01:00:00Z,25.1760,-80.6330,1.5,19.87,1111122 
ENP,ioos.station.NOAA.NDBC:LMDF1:1,2016-03-02T02:00:00Z,25.1760,-80.6330,1.5,19.98,1111122 
ENP,ioos.station.NOAA.NDBC:LMDF1:1,2016-03-02T04:00:00Z,25.1760,-80.6330,1.5,19.97,1111122 
ENP,ioos.station.NOAA.NDBC:LMDF1:1,2016-03-02T05:00:00Z,25.1760,-80.6330,1.5,20.06,1111122 
ENP,ioos.station.NOAA.NDBC:LMDF1:1,2016-03-02T08:00:00Z,25.1760,-80.6330,1.5,19.93,1111122 
ENP,ioos.station.NOAA.NDBC:LMDF1:1,2016-03-02T09:00:00Z,25.1760,-80.6330,1.5,19.99,1111122 
ENP,ioos.station.NOAA.NDBC:LMDF1:1,2016-03-02T10:00:00Z,25.1760,-80.6330,1.5,19.99,1111122 
ENP,ioos.station.NOAA.NDBC:LMDF1:1,2016-03-02T12:00:00Z,25.1760,-80.6330,1.5,19.85,1111122 
ENP,ioos.station.NOAA.NDBC:LMDF1:1,2016-03-02T13:00:00Z,25.1760,-80.6330,1.5,19.91,1111122 
ENP,ioos.station.NOAA.NDBC:LMDF1:1,2016-03-02T14:00:00Z,25.1760,-80.6330,1.5,20.0,1111122 
ENP,ioos.station.NOAA.NDBC:LMDF1:1,2016-03-02T15:00:00Z,25.1760,-80.6330,1.5,20.04,1111122 
ENP,ioos.station.NOAA.NDBC:LMDF1:1,2016-03-02T16:00:00Z,25.1760,-80.6330,1.5,20.08,1111122 
ENP,ioos.station.NOAA.NDBC:LMDF1:1,2016-03-02T17:00:00Z,25.1760,-80.6330,1.5,20.07,1111122 
ENP,ioos.station.NOAA.NDBC:LMDF1:1,2016-03-02T18:00:00Z,25.1760,-80.6330,1.5,20.08,1111122 
ENP,ioos.station.NOAA.NDBC:LMDF1:1,2016-03-02T19:00:00Z,25.1760,-80.6330,1.5,19.21,1111122 
ENP,ioos.station.NOAA.NDBC:LMDF1:1,2016-03-02T20:00:00Z,25.1760,-80.6330,1.5,19.68,1111122 
ENP,ioos.station.NOAA.NDBC:LMDF1:1,2016-03-02T21:00:00Z,25.1760,-80.6330,1.5,19.05,1111122 
ENP,ioos.station.NOAA.NDBC:LMDF1:1,2016-03-02T22:00:00Z,25.1760,-80.6330,1.5,18.71,1111122 
ENP,ioos.station.NOAA.NDBC:LMDF1:1,2016-03-02T23:00:00Z,25.1760,-80.6330,1.5,18.09,1111122 
ENP,ioos.station.NOAA.NDBC:LMDF1:1,2016-03-03T00:00:00Z,25.1760,-80.6330,1.5,18.3,1111122 
ENP,ioos.station.NOAA.NDBC:LMDF1:1,2016-03-03T01:00:00Z,25.1760,-80.6330,1.5,18.7,1111122 
ENP,ioos.station.NOAA.NDBC:LMDF1:1,2016-03-03T02:00:00Z,25.1760,-80.6330,1.5,18.41,1111122 
ENP,ioos.station.NOAA.NDBC:LMDF1:1,2016-03-03T05:00:00Z,25.1760,-80.6330,1.5,18.55,1111122 
ENP,ioos.station.NOAA.NDBC:LMDF1:1,2016-03-03T06:00:00Z,25.1760,-80.6330,1.5,18.66,1111122 
ENP,ioos.station.NOAA.NDBC:LMDF1:1,2016-03-03T08:00:00Z,25.1760,-80.6330,1.5,18.92,1111122 
ENP,ioos.station.NOAA.NDBC:LMDF1:1,2016-03-03T09:00:00Z,25.1760,-80.6330,1.5,18.91,1111122 
ENP,ioos.station.NOAA.NDBC:LMDF1:1,2016-03-03T10:00:00Z,25.1760,-80.6330,1.5,18.99,1111122 
ENP,ioos.station.NOAA.NDBC:LMDF1:1,2016-03-03T11:00:00Z,25.1760,-80.6330,1.5,18.69,1111122 
ENP,ioos.station.NOAA.NDBC:LMDF1:1,2016-03-03T12:00:00Z,25.1760,-80.6330,1.5,18.69,1111122 
ENP,ioos.station.NOAA.NDBC:LMDF1:1,2016-03-03T13:00:00Z,25.1760,-80.6330,1.5,18.8,1111122 
ENP,ioos.station.NOAA.NDBC:LMDF1:1,2016-03-03T14:00:00Z,25.1760,-80.6330,1.5,18.74,1111122 
ENP,ioos.station.NOAA.NDBC:LMDF1:1,2016-03-03T15:00:00Z,25.1760,-80.6330,1.5,18.27,1111122 
ENP,ioos.station.NOAA.NDBC:LMDF1:1,2016-03-03T16:00:00Z,25.1760,-80.6330,1.5,18.73,1111122 
ENP,ioos.station.NOAA.NDBC:LMDF1:1,2016-03-03T17:00:00Z,25.1760,-80.6330,1.5,18.76,1111122 
ENP,ioos.station.NOAA.NDBC:LMDF1:1,2016-03-03T18:00:00Z,25.1760,-80.6330,1.5,16.1,1111122 
ENP,ioos.station.NOAA.NDBC:LMDF1:1,2016-03-03T19:00:00Z,25.1760,-80.6330,1.5,18.02,1111122 
ENP,ioos.station.NOAA.NDBC:LMDF1:1,2016-03-03T20:00:00Z,25.1760,-80.6330,1.5,18.81,1111122 
ENP,ioos.station.NOAA.NDBC:LMDF1:1,2016-03-03T21:00:00Z,25.1760,-80.6330,1.5,18.83,1111122 
ENP,ioos.station.NOAA.NDBC:LMDF1:1,2016-03-03T22:00:00Z,25.1760,-80.6330,1.5,18.73,1111122 
ENP,ioos.station.NOAA.NDBC:LMDF1:1,2016-03-03T23:00:00Z,25.1760,-80.6330,1.5,18.47,1111122 
ENP,ioos.station.NOAA.NDBC:LMDF1:1,2016-03-04T00:00:00Z,25.1760,-80.6330,1.5,18.4,1111122 
ENP,ioos.station.NOAA.NDBC:LMDF1:1,2016-03-04T01:00:00Z,25.1760,-80.6330,1.5,18.74,1111122 
ENP,ioos.station.NOAA.NDBC:LMDF1:1,2016-03-04T02:00:00Z,25.1760,-80.6330,1.5,18.76,1111122 
ENP,ioos.station.NOAA.NDBC:LMDF1:1,2016-03-04T05:00:00Z,25.1760,-80.6330,1.5,18.26,1111122 
ENP,ioos.station.NOAA.NDBC:LMDF1:1,2016-03-04T08:00:00Z,25.1760,-80.6330,1.5,18.57,1111122 
ENP,ioos.station.NOAA.NDBC:LMDF1:1,2016-03-04T09:00:00Z,25.1760,-80.6330,1.5,18.53,1111122 
ENP,ioos.station.NOAA.NDBC:LMDF1:1,2016-03-04T10:00:00Z,25.1760,-80.6330,1.5,18.9,1111122 
ENP,ioos.station.NOAA.NDBC:LMDF1:1,2016-03-04T11:00:00Z,25.1760,-80.6330,1.5,19.11,1111122 
ENP,ioos.station.NOAA.NDBC:LMDF1:1,2016-03-04T12:00:00Z,25.1760,-80.6330,1.5,19.31,1111122 
ENP,ioos.station.NOAA.NDBC:LMDF1:1,2016-03-04T13:00:00Z,25.1760,-80.6330,1.5,19.17,1111122 
ENP,ioos.station.NOAA.NDBC:LMDF1:1,2016-03-04T14:00:00Z,25.1760,-80.6330,1.5,19.21,1111122 
ENP,ioos.station.NOAA.NDBC:LMDF1:1,2016-03-04T15:00:00Z,25.1760,-80.6330,1.5,19.09,1111122 
ENP,ioos.station.NOAA.NDBC:LMDF1:1,2016-03-04T16:00:00Z,25.1760,-80.6330,1.5,19.09,1111122 
ENP,ioos.station.NOAA.NDBC:LMDF1:1,2016-03-04T17:00:00Z,25.1760,-80.6330,1.5,19.02,1111122 
ENP,ioos.station.NOAA.NDBC:LMDF1:1,2016-03-04T18:00:00Z,25.1760,-80.6330,1.5,19.02,1111122 
ENP,ioos.station.NOAA.NDBC:LMDF1:1,2016-03-04T19:00:00Z,25.1760,-80.6330,1.5,19.08,1111122 
ENP,ioos.station.NOAA.NDBC:LMDF1:1,2016-03-04T20:00:00Z,25.1760,-80.6330,1.5,16.24,1111122 
ENP,ioos.station.NOAA.NDBC:LMDF1:1,2016-03-04T21:00:00Z,25.1760,-80.6330,1.5,17.64,1111122 
ENP,ioos.station.NOAA.NDBC:LMDF1:1,2016-03-04T22:00:00Z,25.1760,-80.6330,1.5,18.98,1111122 
ENP,ioos.station.NOAA.NDBC:LMDF1:1,2016-03-04T23:00:00Z,25.1760,-80.6330,1.5,19.04,1111122 
ENP,ioos.station.NOAA.NDBC:LMDF1:1,2016-03-05T00:00:00Z,25.1760,-80.6330,1.5,19.02,1111122 
ENP,ioos.station.NOAA.NDBC:LMDF1:1,2016-03-05T01:00:00Z,25.1760,-80.6330,1.5,19.0,1111122 
ENP,ioos.station.NOAA.NDBC:LMDF1:1,2016-03-05T02:00:00Z,25.1760,-80.6330,1.5,16.69,1111122 
ENP,ioos.station.NOAA.NDBC:LMDF1:1,2016-03-05T05:00:00Z,25.1760,-80.6330,1.5,18.3,1111122 
ENP,ioos.station.NOAA.NDBC:LMDF1:1,2016-03-05T08:00:00Z,25.1760,-80.6330,1.5,18.98,1111122 
ENP,ioos.station.NOAA.NDBC:LMDF1:1,2016-03-05T09:00:00Z,25.1760,-80.6330,1.5,18.3,1111122 
ENP,ioos.station.NOAA.NDBC:LMDF1:1,2016-03-05T10:00:00Z,25.1760,-80.6330,1.5,18.85,1111122 
ENP,ioos.station.NOAA.NDBC:LMDF1:1,2016-03-05T11:00:00Z,25.1760,-80.6330,1.5,18.95,1111122 
ENP,ioos.station.NOAA.NDBC:LMDF1:1,2016-03-05T12:00:00Z,25.1760,-80.6330,1.5,19.04,1111122 
ENP,ioos.station.NOAA.NDBC:LMDF1:1,2016-03-05T13:00:00Z,25.1760,-80.6330,1.5,18.97,1111122 
ENP,ioos.station.NOAA.NDBC:LMDF1:1,2016-03-05T14:00:00Z,25.1760,-80.6330,1.5,19.08,1111122 
ENP,ioos.station.NOAA.NDBC:LMDF1:1,2016-03-05T15:00:00Z,25.1760,-80.6330,1.5,19.13,1111122 
ENP,ioos.station.NOAA.NDBC:LMDF1:1,2016-03-05T16:00:00Z,25.1760,-80.6330,1.5,18.75,1111122 
ENP,ioos.station.NOAA.NDBC:LMDF1:1,2016-03-05T17:00:00Z,25.1760,-80.6330,1.5,19.11,1111122 
ENP,ioos.station.NOAA.NDBC:LMDF1:1,2016-03-05T18:00:00Z,25.1760,-80.6330,1.5,19.06,1111122 
ENP,ioos.station.NOAA.NDBC:LMDF1:1,2016-03-05T19:00:00Z,25.1760,-80.6330,1.5,19.06,1111122 
ENP,ioos.station.NOAA.NDBC:LMDF1:1,2016-03-05T20:00:00Z,25.1760,-80.6330,1.5,18.11,1111122 
ENP,ioos.station.NOAA.NDBC:LMDF1:1,2016-03-05T21:00:00Z,25.1760,-80.6330,1.5,18.83,1111122 
ENP,ioos.station.NOAA.NDBC:LMDF1:1,2016-03-05T22:00:00Z,25.1760,-80.6330,1.5,16.88,1111122 
ENP,ioos.station.NOAA.NDBC:LMDF1:1,2016-03-05T23:00:00Z,25.1760,-80.6330,1.5,18.01,1111122 
ENP,ioos.station.NOAA.NDBC:LMDF1:1,2016-03-06T00:00:00Z,25.1760,-80.6330,1.5,18.99,1111122 
ENP,ioos.station.NOAA.NDBC:LMDF1:1,2016-03-06T01:00:00Z,25.1760,-80.6330,1.5,19.17,1111122 
ENP,ioos.station.NOAA.NDBC:LMDF1:1,2016-03-06T02:00:00Z,25.1760,-80.6330,1.5,19.35,1111122 
ENP,ioos.station.NOAA.NDBC:LMDF1:1,2016-03-06T05:00:00Z,25.1760,-80.6330,1.5,19.55,1111122 
ENP,ioos.station.NOAA.NDBC:LMDF1:1,2016-03-06T08:00:00Z,25.1760,-80.6330,1.5,19.62,1111122 
ENP,ioos.station.NOAA.NDBC:LMDF1:1,2016-03-06T09:00:00Z,25.1760,-80.6330,1.5,19.54,1111122 
ENP,ioos.station.NOAA.NDBC:LMDF1:1,2016-03-06T10:00:00Z,25.1760,-80.6330,1.5,17.27,1111122 
ENP,ioos.station.NOAA.NDBC:LMDF1:1,2016-03-06T12:00:00Z,25.1760,-80.6330,1.5,19.3,1111122 
ENP,ioos.station.NOAA.NDBC:LMDF1:1,2016-03-06T13:00:00Z,25.1760,-80.6330,1.5,17.02,1111122 
ENP,ioos.station.NOAA.NDBC:LMDF1:1,2016-03-06T14:00:00Z,25.1760,-80.6330,1.5,19.52,1111122 
ENP,ioos.station.NOAA.NDBC:LMDF1:1,2016-03-06T15:00:00Z,25.1760,-80.6330,1.5,19.82,1111122 
ENP,ioos.station.NOAA.NDBC:LMDF1:1,2016-03-06T16:00:00Z,25.1760,-80.6330,1.5,19.09,1111122 
ENP,ioos.station.NOAA.NDBC:LMDF1:1,2016-03-06T17:00:00Z,25.1760,-80.6330,1.5,19.15,1111122 
ENP,ioos.station.NOAA.NDBC:LMDF1:1,2016-03-06T18:00:00Z,25.1760,-80.6330,1.5,19.29,1111122 
ENP,ioos.station.NOAA.NDBC:LMDF1:1,2016-03-06T19:00:00Z,25.1760,-80.6330,1.5,18.25,1111122 
ENP,ioos.station.NOAA.NDBC:LMDF1:1,2016-03-06T20:00:00Z,25.1760,-80.6330,1.5,19.43,1111122 
ENP,ioos.station.NOAA.NDBC:LMDF1:1,2016-03-06T21:00:00Z,25.1760,-80.6330,1.5,19.49,1111122 
ENP,ioos.station.NOAA.NDBC:LMDF1:1,2016-03-06T22:00:00Z,25.1760,-80.6330,1.5,19.76,1111122 
ENP,ioos.station.NOAA.NDBC:LMDF1:1,2016-03-06T23:00:00Z,25.1760,-80.6330,1.5,19.56,1111122 
ENP,ioos.station.NOAA.NDBC:LMDF1:1,2016-03-07T00:00:00Z,25.1760,-80.6330,1.5,18.66,1111122 
ENP,ioos.station.NOAA.NDBC:LMDF1:1,2016-03-07T01:00:00Z,25.1760,-80.6330,1.5,18.34,1111122 
ENP,ioos.station.NOAA.NDBC:LMDF1:1,2016-03-07T02:00:00Z,25.1760,-80.6330,1.5,18.42,1111122 
ENP,ioos.station.NOAA.NDBC:LMDF1:1,2016-03-07T03:00:00Z,25.1760,-80.6330,1.5,18.51,1111122 
ENP,ioos.station.NOAA.NDBC:LMDF1:1,2016-03-07T05:00:00Z,25.1760,-80.6330,1.5,18.89,1111122 
ENP,ioos.station.NOAA.NDBC:LMDF1:1,2016-03-07T06:00:00Z,25.1760,-80.6330,1.5,19.33,1111122 
ENP,ioos.station.NOAA.NDBC:LMDF1:1,2016-03-07T08:00:00Z,25.1760,-80.6330,1.5,19.51,1111122 
ENP,ioos.station.NOAA.NDBC:LMDF1:1,2016-03-07T09:00:00Z,25.1760,-80.6330,1.5,19.53,1111122 
ENP,ioos.station.NOAA.NDBC:LMDF1:1,2016-03-07T10:00:00Z,25.1760,-80.6330,1.5,19.3,1111122 
ENP,ioos.station.NOAA.NDBC:LMDF1:1,2016-03-07T11:00:00Z,25.1760,-80.6330,1.5,19.34,1111122 
ENP,ioos.station.NOAA.NDBC:LMDF1:1,2016-03-07T12:00:00Z,25.1760,-80.6330,1.5,18.99,1111122 
ENP,ioos.station.NOAA.NDBC:LMDF1:1,2016-03-07T14:00:00Z,25.1760,-80.6330,1.5,18.91,1111122 
ENP,ioos.station.NOAA.NDBC:LMDF1:1,2016-03-07T15:00:00Z,25.1760,-80.6330,1.5,18.91,1111122 
ENP,ioos.station.NOAA.NDBC:LMDF1:1,2016-03-07T16:00:00Z,25.1760,-80.6330,1.5,18.54,1111122 
ENP,ioos.station.NOAA.NDBC:LMDF1:1,2016-03-07T17:00:00Z,25.1760,-80.6330,1.5,19.14,1111122 
ENP,ioos.station.NOAA.NDBC:LMDF1:1,2016-03-07T18:00:00Z,25.1760,-80.6330,1.5,18.52,1111122 
ENP,ioos.station.NOAA.NDBC:LMDF1:1,2016-03-07T19:00:00Z,25.1760,-80.6330,1.5,18.19,1111122 
ENP,ioos.station.NOAA.NDBC:LMDF1:1,2016-03-07T20:00:00Z,25.1760,-80.6330,1.5,18.11,1111122 
ENP,ioos.station.NOAA.NDBC:LMDF1:1,2016-03-07T21:00:00Z,25.1760,-80.6330,1.5,18.27,1111122 
ENP,ioos.station.NOAA.NDBC:LMDF1:1,2016-03-08T10:00:00Z,25.1760,-80.6330,1.5,17.15,1111122 
ENP,ioos.station.NOAA.NDBC:LMDF1:1,2016-03-08T11:00:00Z,25.1760,-80.6330,1.5,16.47,1111122 
ENP,ioos.station.NOAA.NDBC:LMDF1:1,2016-03-08T12:00:00Z,25.1760,-80.6330,1.5,16.66,1111122 
ENP,ioos.station.NOAA.NDBC:LMDF1:1,2016-03-08T13:00:00Z,25.1760,-80.6330,1.5,16.53,1111122 
ENP,ioos.station.NOAA.NDBC:LMDF1:1,2016-03-08T14:00:00Z,25.1760,-80.6330,1.5,16.71,1111122 
ENP,ioos.station.NOAA.NDBC:LMDF1:1,2016-03-08T15:00:00Z,25.1760,-80.6330,1.5,16.57,1111122 
ENP,ioos.station.NOAA.NDBC:LMDF1:1,2016-03-08T16:00:00Z,25.1760,-80.6330,1.5,16.69,1111122 
ENP,ioos.station.NOAA.NDBC:LMDF1:1,2016-03-08T17:00:00Z,25.1760,-80.6330,1.5,17.19,1111122 
ENP,ioos.station.NOAA.NDBC:LMDF1:1,2016-03-08T18:00:00Z,25.1760,-80.6330,1.5,17.35,1111122 
ENP,ioos.station.NOAA.NDBC:LMDF1:1,2016-03-08T19:00:00Z,25.1760,-80.6330,1.5,17.21,1111122 
ENP,ioos.station.NOAA.NDBC:LMDF1:1,2016-03-08T20:00:00Z,25.1760,-80.6330,1.5,16.55,1111122 
ENP,ioos.station.NOAA.NDBC:LMDF1:1,2016-03-08T21:00:00Z,25.1760,-80.6330,1.5,16.05,1111122 
ENP,ioos.station.NOAA.NDBC:LMDF1:1,2016-03-08T22:00:00Z,25.1760,-80.6330,1.5,16.32,1111122 
ENP,ioos.station.NOAA.NDBC:LMDF1:1,2016-03-08T23:00:00Z,25.1760,-80.6330,1.5,16.75,1111122 
ENP,ioos.station.NOAA.NDBC:LMDF1:1,2016-03-09T00:00:00Z,25.1760,-80.6330,1.5,16.47,1111122 
ENP,ioos.station.NOAA.NDBC:LMDF1:1,2016-03-09T01:00:00Z,25.1760,-80.6330,1.5,15.7,1111122 
ENP,ioos.station.NOAA.NDBC:LMDF1:1,2016-03-09T02:00:00Z,25.1760,-80.6330,1.5,16.16,1111122 
ENP,ioos.station.NOAA.NDBC:LMDF1:1,2016-03-09T07:00:00Z,25.1760,-80.6330,1.5,16.59,1111122 
ENP,ioos.station.NOAA.NDBC:LMDF1:1,2016-03-09T08:00:00Z,25.1760,-80.6330,1.5,17.48,1111122 
ENP,ioos.station.NOAA.NDBC:LMDF1:1,2016-03-09T09:00:00Z,25.1760,-80.6330,1.5,17.08,1111122 
ENP,ioos.station.NOAA.NDBC:LMDF1:1,2016-03-09T10:00:00Z,25.1760,-80.6330,1.5,16.11,1111122 
ENP,ioos.station.NOAA.NDBC:LMDF1:1,2016-03-09T11:00:00Z,25.1760,-80.6330,1.5,17.52,1111122 
ENP,ioos.station.NOAA.NDBC:LMDF1:1,2016-03-09T12:00:00Z,25.1760,-80.6330,1.5,17.09,1111122 
ENP,ioos.station.NOAA.NDBC:LMDF1:1,2016-03-09T13:00:00Z,25.1760,-80.6330,1.5,16.75,1111122 
ENP,ioos.station.NOAA.NDBC:LMDF1:1,2016-03-09T14:00:00Z,25.1760,-80.6330,1.5,16.26,1111122 
ENP,ioos.station.NOAA.NDBC:LMDF1:1,2016-03-09T15:00:00Z,25.1760,-80.6330,1.5,16.33,1111122 
ENP,ioos.station.NOAA.NDBC:LMDF1:1,2016-03-09T16:00:00Z,25.1760,-80.6330,1.5,18.03,1111122 
ENP,ioos.station.NOAA.NDBC:LMDF1:1,2016-03-09T17:00:00Z,25.1760,-80.6330,1.5,15.39,1111122 
ENP,ioos.station.NOAA.NDBC:LMDF1:1,2016-03-09T18:00:00Z,25.1760,-80.6330,1.5,17.38,1111122 
ENP,ioos.station.NOAA.NDBC:LMDF1:1,2016-03-09T19:00:00Z,25.1760,-80.6330,1.5,17.52,1111122 
ENP,ioos.station.NOAA.NDBC:LMDF1:1,2016-03-09T20:00:00Z,25.1760,-80.6330,1.5,17.19,1111122 
ENP,ioos.station.NOAA.NDBC:LMDF1:1,2016-03-09T21:00:00Z,25.1760,-80.6330,1.5,17.56,1111122 
ENP,ioos.station.NOAA.NDBC:LMDF1:1,2016-03-09T22:00:00Z,25.1760,-80.6330,1.5,16.48,1111122 
ENP,ioos.station.NOAA.NDBC:LMDF1:1,2016-03-09T23:00:00Z,25.1760,-80.6330,1.5,16.67,1111122 
ENP,ioos.station.NOAA.NDBC:LMDF1:1,2016-03-10T00:00:00Z,25.1760,-80.6330,1.5,16.49,1111122 
ENP,ioos.station.NOAA.NDBC:LMDF1:1,2016-03-10T01:00:00Z,25.1760,-80.6330,1.5,15.73,1111122 
ENP,ioos.station.NOAA.NDBC:LMDF1:1,2016-03-10T02:00:00Z,25.1760,-80.6330,1.5,16.67,1111122 
ENP,ioos.station.NOAA.NDBC:LMDF1:1,2016-03-10T05:00:00Z,25.1760,-80.6330,1.5,18.07,1111122 
ENP,ioos.station.NOAA.NDBC:LMDF1:1,2016-03-10T08:00:00Z,25.1760,-80.6330,1.5,18.68,1111122 
ENP,ioos.station.NOAA.NDBC:LMDF1:1,2016-03-10T09:00:00Z,25.1760,-80.6330,1.5,18.0,1111122 
ENP,ioos.station.NOAA.NDBC:LMDF1:1,2016-03-10T10:00:00Z,25.1760,-80.6330,1.5,17.62,1111122 
ENP,ioos.station.NOAA.NDBC:LMDF1:1,2016-03-10T12:00:00Z,25.1760,-80.6330,1.5,16.8,1111122 
ENP,ioos.station.NOAA.NDBC:LMDF1:1,2016-03-10T13:00:00Z,25.1760,-80.6330,1.5,16.14,1111122 
ENP,ioos.station.NOAA.NDBC:LMDF1:1,2016-03-10T14:00:00Z,25.1760,-80.6330,1.5,15.89,1111122 
ENP,ioos.station.NOAA.NDBC:LMDF1:1,2016-03-10T15:00:00Z,25.1760,-80.6330,1.5,17.67,1111122 
ENP,ioos.station.NOAA.NDBC:LMDF1:1,2016-03-10T16:00:00Z,25.1760,-80.6330,1.5,18.09,1111122 
ENP,ioos.station.NOAA.NDBC:LMDF1:1,2016-03-10T17:00:00Z,25.1760,-80.6330,1.5,17.05,1111122 
ENP,ioos.station.NOAA.NDBC:LMDF1:1,2016-03-10T18:00:00Z,25.1760,-80.6330,1.5,17.37,1111122 
ENP,ioos.station.NOAA.NDBC:LMDF1:1,2016-03-10T19:00:00Z,25.1760,-80.6330,1.5,18.49,1111122 
ENP,ioos.station.NOAA.NDBC:LMDF1:1,2016-03-10T20:00:00Z,25.1760,-80.6330,1.5,18.76,1111122 
ENP,ioos.station.NOAA.NDBC:LMDF1:1,2016-03-10T21:00:00Z,25.1760,-80.6330,1.5,19.08,1111122 
ENP,ioos.station.NOAA.NDBC:LMDF1:1,2016-03-10T22:00:00Z,25.1760,-80.6330,1.5,18.31,1111122 
ENP,ioos.station.NOAA.NDBC:LMDF1:1,2016-03-10T23:00:00Z,25.1760,-80.6330,1.5,15.22,1111122 
ENP,ioos.station.NOAA.NDBC:LMDF1:1,2016-03-11T00:00:00Z,25.1760,-80.6330,1.5,14.54,1111122 
ENP,ioos.station.NOAA.NDBC:LMDF1:1,2016-03-11T01:00:00Z,25.1760,-80.6330,1.5,15.8,1111122 
ENP,ioos.station.NOAA.NDBC:LMDF1:1,2016-03-11T02:00:00Z,25.1760,-80.6330,1.5,15.82,1111122 
ENP,ioos.station.NOAA.NDBC:LMDF1:1,2016-03-11T05:00:00Z,25.1760,-80.6330,1.5,15.51,1111122 
ENP,ioos.station.NOAA.NDBC:LMDF1:1,2016-03-11T08:00:00Z,25.1760,-80.6330,1.5,15.78,1111122 
ENP,ioos.station.NOAA.NDBC:LMDF1:1,2016-03-11T09:00:00Z,25.1760,-80.6330,1.5,14.59,1111122 
ENP,ioos.station.NOAA.NDBC:LMDF1:1,2016-03-11T10:00:00Z,25.1760,-80.6330,1.5,14.24,1111122 
ENP,ioos.station.NOAA.NDBC:LMDF1:1,2016-03-11T11:00:00Z,25.1760,-80.6330,1.5,15.08,1111122 
ENP,ioos.station.NOAA.NDBC:LMDF1:1,2016-03-11T12:00:00Z,25.1760,-80.6330,1.5,16.41,1111122 
ENP,ioos.station.NOAA.NDBC:LMDF1:1,2016-03-11T13:00:00Z,25.1760,-80.6330,1.5,15.09,1111122 
ENP,ioos.station.NOAA.NDBC:LMDF1:1,2016-03-11T14:00:00Z,25.1760,-80.6330,1.5,15.45,1111122 
ENP,ioos.station.NOAA.NDBC:LMDF1:1,2016-03-11T15:00:00Z,25.1760,-80.6330,1.5,16.51,1111122 
ENP,ioos.station.NOAA.NDBC:LMDF1:1,2016-03-11T16:00:00Z,25.1760,-80.6330,1.5,16.87,1111122 
ENP,ioos.station.NOAA.NDBC:LMDF1:1,2016-03-11T17:00:00Z,25.1760,-80.6330,1.5,16.04,1111122 
ENP,ioos.station.NOAA.NDBC:LMDF1:1,2016-03-11T18:00:00Z,25.1760,-80.6330,1.5,16.02,1111122 
ENP,ioos.station.NOAA.NDBC:LMDF1:1,2016-03-11T19:00:00Z,25.1760,-80.6330,1.5,17.87,1111122 
ENP,ioos.station.NOAA.NDBC:LMDF1:1,2016-03-11T20:00:00Z,25.1760,-80.6330,1.5,17.54,1111122 
ENP,ioos.station.NOAA.NDBC:LMDF1:1,2016-03-11T21:00:00Z,25.1760,-80.6330,1.5,17.84,1111122 
ENP,ioos.station.NOAA.NDBC:LMDF1:1,2016-03-11T22:00:00Z,25.1760,-80.6330,1.5,14.99,1111122 
ENP,ioos.station.NOAA.NDBC:LMDF1:1,2016-03-11T23:00:00Z,25.1760,-80.6330,1.5,13.86,1111122 
ENP,ioos.station.NOAA.NDBC:LMDF1:1,2016-03-12T00:00:00Z,25.1760,-80.6330,1.5,14.05,1111122 
ENP,ioos.station.NOAA.NDBC:LMDF1:1,2016-03-12T01:00:00Z,25.1760,-80.6330,1.5,15.1,1111122 
ENP,ioos.station.NOAA.NDBC:LMDF1:1,2016-03-12T02:00:00Z,25.1760,-80.6330,1.5,16.97,1111122 
ENP,ioos.station.NOAA.NDBC:LMDF1:1,2016-03-12T05:00:00Z,25.1760,-80.6330,1.5,14.33,1111122 
ENP,ioos.station.NOAA.NDBC:LMDF1:1,2016-03-12T08:00:00Z,25.1760,-80.6330,1.5,17.77,1111122 
ENP,ioos.station.NOAA.NDBC:LMDF1:1,2016-03-12T09:00:00Z,25.1760,-80.6330,1.5,17.56,1111122 
ENP,ioos.station.NOAA.NDBC:LMDF1:1,2016-03-12T10:00:00Z,25.1760,-80.6330,1.5,17.97,1111122 
ENP,ioos.station.NOAA.NDBC:LMDF1:1,2016-03-12T11:00:00Z,25.1760,-80.6330,1.5,18.25,1111122 
ENP,ioos.station.NOAA.NDBC:LMDF1:1,2016-03-12T12:00:00Z,25.1760,-80.6330,1.5,18.73,1111122 
ENP,ioos.station.NOAA.NDBC:LMDF1:1,2016-03-12T13:00:00Z,25.1760,-80.6330,1.5,18.64,1111122 
ENP,ioos.station.NOAA.NDBC:LMDF1:1,2016-03-12T14:00:00Z,25.1760,-80.6330,1.5,18.8,1111122 
ENP,ioos.station.NOAA.NDBC:LMDF1:1,2016-03-12T15:00:00Z,25.1760,-80.6330,1.5,18.77,1111122 
ENP,ioos.station.NOAA.NDBC:LMDF1:1,2016-03-12T16:00:00Z,25.1760,-80.6330,1.5,18.14,1111122 
ENP,ioos.station.NOAA.NDBC:LMDF1:1,2016-03-12T17:00:00Z,25.1760,-80.6330,1.5,17.04,1111122 
ENP,ioos.station.NOAA.NDBC:LMDF1:1,2016-03-12T18:00:00Z,25.1760,-80.6330,1.5,15.72,1111122 
ENP,ioos.station.NOAA.NDBC:LMDF1:1,2016-03-12T19:00:00Z,25.1760,-80.6330,1.5,15.72,1111122 
ENP,ioos.station.NOAA.NDBC:LMDF1:1,2016-03-12T20:00:00Z,25.1760,-80.6330,1.5,18.1,1111122 
ENP,ioos.station.NOAA.NDBC:LMDF1:1,2016-03-12T21:00:00Z,25.1760,-80.6330,1.5,18.69,1111122 
ENP,ioos.station.NOAA.NDBC:LMDF1:1,2016-03-12T22:00:00Z,25.1760,-80.6330,1.5,18.36,1111122 
ENP,ioos.station.NOAA.NDBC:LMDF1:1,2016-03-12T23:00:00Z,25.1760,-80.6330,1.5,17.99,1111122 
ENP,ioos.station.NOAA.NDBC:LMDF1:1,2016-03-13T00:00:00Z,25.1760,-80.6330,1.5,15.24,1111122 
ENP,ioos.station.NOAA.NDBC:LMDF1:1,2016-03-13T01:00:00Z,25.1760,-80.6330,1.5,17.77,1111122 
ENP,ioos.station.NOAA.NDBC:LMDF1:1,2016-03-13T02:00:00Z,25.1760,-80.6330,1.5,16.36,1111122 
ENP,ioos.station.NOAA.NDBC:LMDF1:1,2016-03-13T04:00:00Z,25.1760,-80.6330,1.5,16.39,1111122 
ENP,ioos.station.NOAA.NDBC:LMDF1:1,2016-03-13T08:00:00Z,25.1760,-80.6330,1.5,16.47,1111122 
ENP,ioos.station.NOAA.NDBC:LMDF1:1,2016-03-13T09:00:00Z,25.1760,-80.6330,1.5,16.43,1111122 
ENP,ioos.station.NOAA.NDBC:LMDF1:1,2016-03-13T11:00:00Z,25.1760,-80.6330,1.5,16.43,1111122 
ENP,ioos.station.NOAA.NDBC:LMDF1:1,2016-03-13T12:00:00Z,25.1760,-80.6330,1.5,16.68,1111122 
ENP,ioos.station.NOAA.NDBC:LMDF1:1,2016-03-13T13:00:00Z,25.1760,-80.6330,1.5,17.65,1111122 
ENP,ioos.station.NOAA.NDBC:LMDF1:1,2016-03-13T14:00:00Z,25.1760,-80.6330,1.5,16.3,1111122 
ENP,ioos.station.NOAA.NDBC:LMDF1:1,2016-03-13T15:00:00Z,25.1760,-80.6330,1.5,15.87,1111122 
ENP,ioos.station.NOAA.NDBC:LMDF1:1,2016-03-13T16:00:00Z,25.1760,-80.6330,1.5,16.61,1111122 
ENP,ioos.station.NOAA.NDBC:LMDF1:1,2016-03-13T17:00:00Z,25.1760,-80.6330,1.5,17.56,1111122 
ENP,ioos.station.NOAA.NDBC:LMDF1:1,2016-03-13T18:00:00Z,25.1760,-80.6330,1.5,14.05,1111122 
ENP,ioos.station.NOAA.NDBC:LMDF1:1,2016-03-13T19:00:00Z,25.1760,-80.6330,1.5,16.53,1111122 
ENP,ioos.station.NOAA.NDBC:LMDF1:1,2016-03-13T20:00:00Z,25.1760,-80.6330,1.5,16.78,1111122 
ENP,ioos.station.NOAA.NDBC:LMDF1:1,2016-03-13T21:00:00Z,25.1760,-80.6330,1.5,16.47,1111122 
ENP,ioos.station.NOAA.NDBC:LMDF1:1,2016-03-13T22:00:00Z,25.1760,-80.6330,1.5,16.5,1111122 
ENP,ioos.station.NOAA.NDBC:LMDF1:1,2016-03-13T23:00:00Z,25.1760,-80.6330,1.5,16.54,1111122 
ENP,ioos.station.NOAA.NDBC:LMDF1:1,2016-03-14T00:00:00Z,25.1760,-80.6330,1.5,16.63,1111122 
ENP,ioos.station.NOAA.NDBC:LMDF1:1,2016-03-14T01:00:00Z,25.1760,-80.6330,1.5,16.68,1111122 
ENP,ioos.station.NOAA.NDBC:LMDF1:1,2016-03-14T03:00:00Z,25.1760,-80.6330,1.5,16.7,1111122 
ENP,ioos.station.NOAA.NDBC:LMDF1:1,2016-03-14T04:00:00Z,25.1760,-80.6330,1.5,16.71,1111122 
ENP,ioos.station.NOAA.NDBC:LMDF1:1,2016-03-14T07:00:00Z,25.1760,-80.6330,1.5,16.82,1111122 
ENP,ioos.station.NOAA.NDBC:LMDF1:1,2016-03-14T08:00:00Z,25.1760,-80.6330,1.5,16.28,1111122 
ENP,ioos.station.NOAA.NDBC:LMDF1:1,2016-03-14T09:00:00Z,25.1760,-80.6330,1.5,16.2,1111122 
ENP,ioos.station.NOAA.NDBC:LMDF1:1,2016-03-14T10:00:00Z,25.1760,-80.6330,1.5,16.25,1111122 
ENP,ioos.station.NOAA.NDBC:LMDF1:1,2016-03-14T11:00:00Z,25.1760,-80.6330,1.5,16.35,1111122 
ENP,ioos.station.NOAA.NDBC:LMDF1:1,2016-03-14T12:00:00Z,25.1760,-80.6330,1.5,16.3,1111122 
ENP,ioos.station.NOAA.NDBC:LMDF1:1,2016-03-14T13:00:00Z,25.1760,-80.6330,1.5,16.03,1111122 
ENP,ioos.station.NOAA.NDBC:LMDF1:1,2016-03-14T14:00:00Z,25.1760,-80.6330,1.5,15.96,1111122 
ENP,ioos.station.NOAA.NDBC:LMDF1:1,2016-03-14T18:00:00Z,25.1760,-80.6330,1.5,16.16,1111122 